SCP
0 0 0 0 -0 0 0 0 0 0 0 0 0 0 0 0 0 0 0 0 0 0 0 -0 -0 -0 -0 0 0 0 0 0 0 0 0 0 0 0 0 0 0 0 0 0 0 0 0 0 0 0 0 0 0 0
0 0 0 0 0 0 0 -0 0 0 0 0 0 0 0 0 0 0 0 0 0 0 -0 -0 0 -0 0 0 0 0 0 0 0 0 0 0 0 0 0 0 0 0 0 0 0 0 0 0 0 0 0 0 0 0
0 0 0 0 0 0 0 0 0 0 0 0 0 0 0 0 0 0 0 0 0 0 0 0 0 0 0 0 0 0 0 0 0 0 0 0 0 0 0 0 0 0 0 0 0 0 0 0 0 0 0 0 0 0
-0 0 0 0 0 0 0 0 0 0 0 0 0 0 0 0 0 0 0 0 0 0 0 0 0 0 0 0 0 0 0 0 0 0 0 0 0 0 0 0 0 0 0 0 0 0 0 0 0 0 0 0 0 0
-0 0 0 0 0 0 0 0 0 0 0 0 0 0 0 0 0 0 0 0 0 0 -0 0 -0 0 0 0 0 0 0 0 0 0 0 0 0 0 0 0 0 0 0 0 0 0 0 0 0 0 0 0 0 0
-0 0 0 0 0 0 0 0 0 0 0 0 0 0 0 0 0 0 0 0 0 -0 -0 -0 -0 0 0 0 0 0 0 0 0 0 0 0 0 0 0 0 0 0 0 0 0 0 0 0 0 0 0 0 0 0
-0 -0 0 0 0 0 0 0 0 0 0 0 0 0 0 0 0 0 0 0 0 -0 -0 -0 -0 -0 0 0 0 0 0 0 0 0 0 0 0 0 0 0 0 0 0 0 0 0 0 0 0 0 0 0 0 0
-0 -0 0 0 0 0 0 0 0 0 0 0 0 0 0 0 0 0 0 0 0 -0 -0 -0 -0 -0 0 0 0 0 0 0 0 0 0 0 0 0 0 0 0 0 0 0 0 0 0 0 0 0 0 0 0 0
-0 -0 -0 0 0 0 0 0 0 0 0 0 0 0 0 0 0 0 0 0 -0 -0 -0 -0 -0 0 0 0 0 0 0 0 0 0 0 0 0 0 0 0 0 0 0 0 0 0 0 0 0 0 0 0 0 0
-0 -0 -0 0 0 0 0 0 0 0 0 0 0 0 0 0 0 0 0 0 0 0 0 -0 -0 -0 0 0 0 0 0 0 0 0 0 0 0 0 0 0 0 0 0 0 0 0 0 0 0 0 0 0 0 0
-0 -0 -0 -0 0 0 0 0 0 0 0 0 0 0 0 0 0 0 0 0 0 0 0 0 0 0 -0 0 0 0 0 0 0 0 0 0 0 0 0 0 0 0 0 0 0 0 0 0 0 0 0 0 0 0
-0 -0 -0 -0 0 0 0 0 0 0 0 0 0 0 0 0 0 0 0 0 0 -0 0 0 0 0 0 -0 0 0 0 0 0 0 0 0 0 0 0 0 0 0 0 0 0 0 0 0 0 0 0 0 0 0
-0 -0 -0 -0 -0 0 0 0 0 0 0 0 0 0 0 0 0 0 0 0 0 0 0 0 0 0 0 0 0 0 0 0 0 0 0 0 0 0 0 0 0 0 0 0 0 0 0 0 0 0 0 0 0 0
-0 0 -0 -0 -0 -0 0 0 0 0 0 0 0 0 0 0 0 0 0 0 0 0 0 0 0 0 0 0 0 0 0 0 0 0 0 0 0 0 0 0 0 0 0 0 0 0 0 0 0 0 0 0 0 0
-0 0 -0 -0 -0 -0 0 0 0 0 0 0 0 0 0 0 0 0 0 0 0 0 0 0 -0 -0 0 0 0 0 0 0 0 0 0 0 0 0 0 0 0 0 0 0 0 0 0 0 0 0 0 0 0 0
-0 -0 0 -0 -0 0 0 0 0 0 0 0 0 0 0 0 0 0 0 0 0 0 0 0 0 0 0 0 0 0 0 0 0 0 0 0 0 0 0 0 0 0 0 0 0 0 0 0 0 0 0 0 0 0
0 0 -0 -0 0 0 -0 0 0 0 0 0 0 0 0 0 0 0 0 0 0 0 0 0 0 0 0 0 0 0 0 0 0 0 0 0 0 0 0 0 0 0 0 0 0 0 0 0 0 0 0 0 0 0
0 0 -0 -0 0 0 0 0 0 0 0 0 0 0 0 0 0 0 0 0 0 0 0 0 0 0 0 0 0 0 0 0 0 0 0 0 0 0 0 0 0 0 0 0 0 0 0 0 0 0 0 0 0 0
0 0 -0 -0 -0 0 0 0 0 0 0 0 0 0 0 0 0 0 0 0 0 0 0 0 0 0 0 0 0 0 0 0 0 0 0 0 0 0 0 0 0 0 0 0 0 0 0 0 0 0 0 0 0 0
0 0 -0 -0 -0 -0 -0 0 0 0 0 0 0 0 0 0 0 0 0 0 0 0 0 0 0 0 0 0 0 0 0 0 0 0 0 0 0 0 0 0 0 0 0 0 0 0 0 0 0 0 0 0 0 0
0 0 0 0 0 -0 -0 0 -0 -0 0 0 0 0 0 0 0 0 0 0 0 0 0 0 0 0 0 0 0 0 0 0 0 0 0 0 0 0 0 0 0 0 0 0 0 0 0 0 0 0 0 0 0 0
0 0 0 0 0 0 0 0 0 0 0 0 0 0 0 0 0 0 0 0 -0 0 0 0 0 0 0 0 0 0 0 0 0 0 0 0 0 0 0 0 0 0 0 0 0 0 0 0 0 0 0 0 0 0
0 0 0 0 0 0 0 0 0 0 0 -0 -0 0 0 0 -0 0 0 -0 -0 -0 -0 -0 -0 0 -0 -0 -0 -0 -0 0 0 0 0 0 0 0 0 0 0 0 0 0 0 0 0 0 0 0 0 0 0 0
-0 0 0 0 0 0 0 0 0 0 0 0 0 0 -0 -0 0 0 -0 0 -0 0 0 0 0 0 0 -0 -0 -0 -0 0 0 0 0 0 0 0 0 0 0 0 0 0 0 0 0 0 0 0 0 0 0 0
0 0 0 0 0 0 0 0 0 0 0 0 0 0 0 0 0 0 0 0 0 0 0 0 0 0 0 -0 0 -0 0 0 0 0 -0 -0 0 0 0 0 0 0 0 0 0 0 0 0 0 0 0 0 0 0
0 0 0 0 0 0 0 0 0 0 0 0 0 0 0 0 0 0 0 0 0 0 0 0 0 0 0 0 0 0 0 0 0 0 0 0 0 0 0 0 0 0 0 -0 0 0 0 0 0 0 0 0 0 0
0 0 0 0 0 0 0 0 0 0 0 0 0 0 0 0 0 0 0 0 0 0 0 0 0 0 0 0 0 0 0 0 0 0 0 0 0 0 0 0 0 0 0 0 0 0 0 0 0 0 0 0 0 0
0 0 0 0 0 0 0 0 0 0 0 0 0 0 0 0 0 0 0 0 0 0 0 0 0 0 0 0 0 0 0 0 0 0 0 0 0 0 0 0 0 -0 0 0 0 0 0 0 0 0 0 0 0 0
0 0 0 0 0 0 0 0 0 0 0 0 0 0 0 0 0 0 0 0 0 0 -0 0 0 0 0 0 0 0 0 0 0 0 0 0 0 0 0 0 0 0 0 0 0 0 0 0 0 0 0 0 0 0
0 0 0 0 0 0 0 0 0 0 0 0 0 0 0 0 0 0 0 0 0 0 0 0 0 0 0 0 0 0 0 0 0 0 0 0 0 0 0 0 0 0 0 0 0 0 0 0 0 0 0 0 0 0
0 0 0 0 0 0 0 0 0 0 0 0 0 0 0 0 0 0 0 0 0 0 0 0 0 0 0 0 0 0 0 0 0 0 0 0 0 0 0 0 0 0 0 0 0 0 0 0 0 0 0 0 0 0
0 0 0 0 0 0 0 0 0 0 0 0 0 0 0 0 0 0 0 0 0 0 0 0 0 0 0 0 0 0 0 0 0 0 0 0 0 0 0 0 0 0 0 0 0 0 0 0 0 0 0 0 0 0
0 0 0 0 0 0 0 0 0 0 0 0 0 0 0 0 0 0 0 0 0 0 0 0 0 0 0 0 0 0 0 0 0 0 0 0 0 0 0 0 0 0 0 0 0 0 0 0 0 0 0 0 0 0
Wind_Speed_500mb
30 27 15 15 10 17 17 17 22 19 33 45 37 47 47 45 42 43 47 45 40 15 9 14 18 22 21 19 11 8 19 11 29 24 15 7 7 9 9 20 38 22 23 11 7 3 32 27 61 58 42 22 13 62
41 25 18 12 11 13 14 11 16 14 27 38 43 41 37 36 36 35 25 35 39 10 7 23 34 40 49 34 25 18 4 12 11 9 6 7 7 6 11 21 7 11 24 25 32 24 1 81 44 54 48 30 22 42
49 36 19 9 8 11 12 9 12 10 11 36 42 39 34 30 30 30 24 29 30 10 9 12 19 25 24 29 32 9 8 14 15 10 9 6 10 8 9 8 27 4 7 12 12 12 11 54 27 72 27 41 24 16
59 42 25 4 3 5 8 8 10 10 6 45 42 37 33 33 25 16 24 27 25 5 5 15 22 31 31 20 14 22 23 20 32 17 6 6 8 4 4 9 16 6 20 14 3 3 9 32 58 79 23 25 30 24
60 28 19 7 5 7 8 9 9 11 9 36 36 36 34 34 27 21 19 13 12 15 6 9 17 37 35 39 12 25 22 15 8 7 6 4 4 8 1 7 5 9 5 26 12 20 8 29 76 66 57 38 38 48
51 40 26 17 11 9 9 8 8 12 8 25 30 27 28 26 21 9 5 10 10 10 7 3 10 26 49 38 42 32 29 23 10 10 4 6 6 3 7 6 11 20 22 10 3 15 16 45 59 49 60 49 51 48
64 43 33 28 19 14 9 5 9 13 10 12 21 18 17 20 10 1 5 7 13 1 6 5 6 17 51 35 31 31 38 20 18 10 6 4 4 6 6 7 17 29 21 25 17 15 9 10 6 25 40 52 51 45
77 75 55 37 24 12 5 3 15 18 19 15 18 18 16 19 28 21 21 27 16 1 4 4 7 9 46 20 12 32 23 20 28 7 6 5 2 7 9 14 24 32 12 25 30 19 11 6 5 15 36 45 46 44
74 70 63 61 44 22 7 1 22 22 28 22 20 19 10 5 9 13 17 20 25 20 6 6 7 7 33 24 20 23 19 8 14 8 5 7 8 12 11 20 29 34 24 33 17 18 15 19 16 14 14 32 40 47
69 68 67 61 55 31 14 11 22 30 32 26 14 7 9 9 14 17 9 10 18 21 18 5 21 4 17 15 7 9 12 6 6 6 14 8 7 23 25 24 25 25 25 29 17 19 25 20 19 13 6 9 22 35
63 66 63 65 57 44 26 29 46 44 38 9 7 9 10 15 12 12 13 11 14 10 23 18 14 6 22 6 6 15 4 6 6 7 6 5 6 7 26 25 30 26 22 22 16 10 11 14 14 11 8 8 9 19
60 58 62 63 58 53 29 28 38 29 11 13 22 18 15 18 14 14 6 7 11 3 20 9 15 17 16 12 5 10 4 5 7 10 5 5 5 19 30 33 32 32 27 21 13 8 7 5 4 4 5 6 11 19
58 54 55 61 62 48 49 40 42 33 23 16 9 11 18 18 21 12 12 8 7 14 24 23 9 18 17 21 4 6 9 3 4 7 5 5 13 28 36 35 28 29 23 18 16 14 12 11 9 6 5 6 10 18
50 53 56 55 56 52 34 35 28 21 9 16 16 15 9 10 6 3 4 5 10 17 36 29 13 6 10 8 5 8 4 4 7 6 5 4 21 30 30 30 30 32 29 25 22 20 20 20 18 18 18 20 21 26
43 51 53 58 56 52 34 22 15 12 14 16 15 9 7 4 3 11 15 16 16 32 27 12 13 6 6 7 6 3 10 8 6 5 5 16 25 24 23 24 23 22 23 23 22 22 22 21 19 22 25 28 30 34
48 45 45 44 47 49 27 15 22 22 16 14 20 8 11 4 10 17 18 15 33 38 16 4 4 8 8 3 10 6 4 4 5 4 18 25 21 20 19 18 19 19 20 21 21 20 21 20 20 21 22 25 28 31
36 42 45 36 35 41 17 19 21 21 16 12 9 19 11 4 5 12 21 27 38 21 5 4 10 2 5 7 7 6 2 4 17 23 22 22 19 18 16 15 15 16 16 16 16 15 15 14 14 15 16 20 21 22
51 51 46 32 28 26 58 29 17 17 17 17 8 11 10 12 15 11 25 29 22 12 11 2 3 12 5 5 5 4 6 15 14 13 13 14 16 17 16 16 16 16 15 14 12 11 11 9 7 8 8 11 13 14
46 46 45 28 35 21 15 20 18 13 14 8 9 12 6 7 15 23 29 17 15 16 6 6 10 5 3 2 4 11 15 17 17 19 12 12 15 20 19 17 17 16 14 13 12 11 8 5 3 2 2 4 3 4
36 37 42 40 25 15 14 17 14 14 9 7 8 7 5 6 16 17 30 19 17 8 14 8 1 4 5 8 11 16 17 18 18 15 11 12 14 18 17 16 18 20 17 15 14 12 10 7 5 4 4 3 5 7
32 36 44 51 49 32 18 12 15 12 7 5 11 11 7 10 10 22 25 24 15 13 4 9 10 10 12 12 12 12 13 13 14 13 17 16 19 18 17 18 20 18 17 15 12 10 8 9 9 9 9 10 10 12
25 31 32 30 21 16 20 24 9 7 6 6 8 12 10 8 15 20 24 20 11 9 9 12 15 15 13 12 11 12 13 14 15 16 18 20 23 22 21 22 21 20 20 20 17 16 15 14 15 15 15 17 17 16
19 19 19 24 12 16 8 18 7 15 7 15 8 8 8 10 17 19 10 9 7 13 13 13 13 12 11 11 12 12 14 15 15 17 19 20 22 23 22 23 26 26 24 21 25 23 24 25 26 25 23 23 24 24
21 15 17 15 24 7 12 15 11 13 9 10 8 9 10 15 27 11 3 7 11 13 13 13 13 12 13 12 14 17 18 19 19 19 23 24 24 20 24 23 23 26 31 32 29 29 30 30 34 34 34 34 33 35
11 25 16 14 20 14 14 13 13 11 6 6 8 7 9 16 6 6 1 6 14 14 14 14 14 16 18 17 20 22 25 28 30 29 27 30 32 31 27 26 27 31 32 28 27 29 27 30 32 33 33 35 36 38
14 20 12 6 9 8 2 7 6 4 2 9 3 11 9 5 7 3 6 7 10 13 13 12 12 11 11 16 19 20 23 24 28 29 28 31 33 36 36 38 40 36 35 34 33 33 32 32 34 35 36 35 37 41
10 6 9 12 6 6 7 4 3 3 4 1 5 9 6 6 5 7 3 3 13 20 18 17 16 16 17 17 18 19 22 23 24 25 26 27 25 27 33 37 39 35 37 38 40 42 44 44 44 44 47 46 46 46
8 7 3 4 2 4 7 2 1 3 5 2 3 3 6 12 8 3 7 19 28 32 20 16 17 20 24 27 30 33 35 38 39 39 39 36 28 35 38 43 46 44 45 46 49 52 55 57 59 59 60 62 61 56
4 7 4 3 1 3 4 6 5 2 1 2 3 6 8 9 14 26 27 23 17 15 11 15 22 29 35 41 44 48 51 53 57 58 57 58 55 49 57 62 60 59 61 65 63 65 66 66 66 66 66 67 68 66
5 11 2 2 4 4 5 6 5 9 13 15 14 16 20 20 8 7 8 6 5 8 13 18 23 29 45 56 54 51 48 49 48 48 51 55 58 61 64 66 67 65 63 63 63 62 60 60 61 62 65 68 70 70
6 6 3 4 4 3 5 13 25 26 17 14 22 29 25 20 10 9 3 4 6 5 8 18 32 51 48 48 51 59 64 57 54 50 51 56 59 60 58 56 55 53 51 51 51 50 49 49 49 51 53 53 52 51
5 3 5 3 3 6 13 6 8 5 6 6 8 9 10 11 11 7 6 4 7 14 24 39 51 45 45 53 48 45 44 46 47 48 50 53 55 55 55 56 57 58 55 53 53 54 55 54 54 54 55 55 53 52
6 5 5 6 4 3 6 13 3 6 8 7 7 7 8 9 13 7 10 12 17 27 37 48 46 50 51 40 38 35 41 44 47 49 51 53 54 55 55 54 54 54 56 60 62 59 55 51 50 49 48 49 49 48
Wind_Direction_500mb
19 27 65 60 14 42 16 9 13 56 146 149 159 165 173 184 194 194 210 222 225 199 235 227 237 237 260 233 271 159 160 174 191 199 166 158 136 208 106 133 158 155 152 163 115 191 255 163 151 171 193 143 192 194
25 24 16 15 26 42 25 36 15 13 65 156 153 155 158 166 176 189 211 214 208 207 265 259 271 280 270 276 280 259 249 138 164 166 109 109 126 156 158 153 178 147 182 172 190 194 340 173 169 190 193 195 172 197
10 7 354 338 3 30 42 36 36 14 56 91 139 137 144 158 176 193 209 191 192 199 255 273 279 333 311 294 293 263 256 175 145 129 136 147 136 149 161 204 158 334 151 157 108 205 197 182 200 197 199 184 175 184
359 355 2 321 11 29 67 55 69 17 52 77 134 131 132 133 135 157 169 178 193 205 243 244 343 353 346 333 3 227 225 131 129 124 103 128 127 192 189 151 175 185 150 149 252 112 102 193 194 197 188 183 181 167
3 359 23 114 71 48 70 60 80 61 86 87 106 125 125 129 120 119 112 104 211 219 236 278 297 1 360 16 353 26 115 118 107 92 58 98 90 108 353 80 70 353 202 193 226 156 136 188 196 199 196 168 174 164
41 48 42 56 42 56 79 74 96 95 140 82 100 118 128 139 150 156 155 55 6 235 249 291 309 346 355 4 13 45 43 44 65 86 85 77 84 93 101 87 24 8 8 356 85 143 166 189 196 197 202 191 175 182
49 51 51 50 52 62 66 85 114 113 113 78 112 99 112 128 154 176 118 347 3 238 236 341 335 348 353 358 357 6 30 28 48 78 52 88 42 57 53 82 357 348 351 33 75 149 131 111 173 198 203 193 190 179
29 32 50 51 59 66 91 168 147 138 143 108 108 89 90 98 108 87 58 35 28 28 47 62 312 6 6 343 335 359 1 22 28 66 63 35 46 71 77 22 4 357 338 19 50 70 131 112 97 189 197 203 196 196
26 28 33 37 42 39 8 264 156 148 152 142 121 104 78 353 61 36 28 22 32 41 96 62 4 320 347 5 350 347 5 41 10 34 29 355 13 50 13 353 4 2 359 332 26 54 90 89 74 79 165 194 204 199
26 26 27 31 36 41 66 105 147 152 145 129 109 51 42 20 10 5 24 21 18 20 43 55 344 328 343 347 348 348 8 24 37 11 321 60 78 88 25 7 360 350 358 8 29 24 24 41 36 31 25 192 208 213
26 26 28 20 31 51 68 133 140 144 144 133 54 52 77 30 20 24 38 49 345 21 9 337 2 318 14 9 343 10 347 351 40 340 0 67 79 57 3 4 5 6 17 26 37 30 12 7 360 350 325 296 242 215
26 28 28 31 25 44 104 132 144 140 131 101 108 83 28 21 32 64 355 4 41 4 336 331 317 325 321 349 32 349 28 3 33 323 21 62 56 9 8 6 9 18 26 31 39 40 50 42 32 344 314 269 231 211
22 26 29 31 33 34 44 109 108 111 102 69 60 58 11 345 43 50 348 340 25 343 359 340 323 340 330 1 41 14 42 29 316 23 53 36 360 356 5 7 16 22 32 43 53 66 82 88 98 100 118 159 180 187
27 26 29 28 29 32 40 46 85 110 79 51 39 31 54 355 37 187 234 258 311 314 324 316 282 328 340 16 348 43 311 355 40 41 36 22 351 344 357 4 10 16 25 35 49 64 81 94 108 123 133 139 148 157
18 23 18 19 21 20 31 43 72 141 53 60 38 49 55 284 317 338 325 304 325 325 335 327 274 296 331 48 33 8 15 22 26 18 350 341 338 344 357 6 12 15 23 32 46 61 75 89 110 125 133 141 148 149
9 10 13 12 7 7 17 32 82 75 64 61 51 71 1 47 352 360 337 325 345 342 334 290 311 37 13 51 39 42 44 8 324 315 325 330 335 340 350 2 10 16 22 26 40 58 71 85 96 107 121 135 144 151
10 15 15 15 18 11 16 52 47 53 53 52 46 37 49 27 290 325 329 333 343 348 23 0 41 224 310 33 37 7 107 262 308 322 330 340 344 345 352 4 11 16 26 30 31 43 61 78 93 107 120 129 137 144
17 14 13 20 25 49 51 46 67 62 65 51 67 20 46 41 355 351 353 354 2 15 358 117 310 35 61 30 356 305 325 315 305 331 346 350 350 354 2 12 19 22 26 31 33 42 52 63 76 92 116 129 135 144
11 13 17 37 47 53 50 42 48 88 64 59 41 18 357 351 359 4 1 3 18 36 36 36 60 38 334 335 279 322 329 335 322 324 343 359 10 7 6 10 12 18 25 29 25 27 32 43 53 65 109 130 142 153
24 30 40 51 61 60 67 43 47 77 76 36 14 11 11 5 352 353 14 21 40 49 42 44 183 289 289 327 324 325 333 341 347 357 10 21 19 15 20 16 14 14 15 19 21 13 1 342 313 292 294 266 244 240
36 45 51 61 55 57 66 45 56 62 70 69 19 8 346 346 4 12 11 18 50 37 26 17 355 346 335 330 329 327 329 333 337 350 345 348 356 8 15 11 1 357 358 354 350 348 341 323 314 303 289 273 262 261
40 45 48 39 51 62 59 31 53 36 31 31 14 10 38 20 3 2 356 39 59 34 16 356 352 349 346 346 341 343 345 349 350 353 355 357 358 359 359 353 351 347 342 336 332 328 319 310 304 298 291 286 283 274
43 41 40 29 62 44 37 15 42 19 55 342 7 33 12 0 357 356 67 53 59 19 22 23 23 24 28 32 29 23 16 8 0 356 351 349 349 342 343 344 334 332 327 323 314 316 311 308 303 298 293 290 287 284
49 45 30 38 26 20 356 25 26 17 33 26 23 3 352 330 343 43 52 7 1 2 9 11 16 22 22 20 16 8 5 360 357 351 341 341 342 341 332 330 321 314 308 306 303 297 294 293 292 292 292 289 290 289
65 12 23 5 19 24 25 3 353 28 23 338 12 352 342 341 31 44 208 321 358 1 4 5 5 3 2 7 1 357 355 351 350 352 346 343 338 335 332 324 320 317 310 309 304 300 297 290 289 290 289 288 286 283
67 14 41 3 355 46 351 16 13 348 16 352 308 321 336 46 45 270 242 344 353 356 354 353 352 353 354 355 356 355 347 345 346 348 348 342 338 333 334 335 332 331 321 319 315 311 308 303 298 294 291 289 286 286
62 348 28 34 48 65 59 61 52 80 32 358 291 357 37 38 271 261 208 9 9 355 341 338 338 339 339 339 331 322 321 322 320 321 327 328 326 325 322 322 322 322 313 311 309 308 306 303 300 296 293 289 288 289
98 54 126 343 113 99 135 82 185 230 244 197 339 346 166 190 236 249 293 307 313 324 316 298 301 300 303 308 308 308 306 307 304 302 301 305 312 317 318 315 312 309 302 298 295 293 294 295 294 292 290 288 287 285
73 22 72 61 145 207 198 183 238 270 222 299 174 266 257 250 289 308 313 317 323 323 311 287 285 300 312 317 315 310 310 310 309 308 305 302 302 297 300 304 303 300 298 295 292 291 291 289 288 286 285 285 286 286
350 350 80 132 143 232 180 207 247 257 267 266 273 279 281 282 283 299 320 323 329 328 327 331 334 333 331 323 322 321 321 323 324 322 317 311 308 306 305 305 304 303 300 297 296 294 290 288 286 284 285 288 290 290
321 327 299 253 247 220 243 289 292 290 281 264 251 251 266 296 280 227 261 318 329 349 357 342 331 334 329 327 327 324 321 324 322 319 314 310 310 310 310 309 308 307 305 304 304 304 303 302 300 299 297 297 296 296
297 273 313 298 285 298 312 324 304 281 274 263 256 255 274 279 272 197 225 257 274 306 323 333 338 339 336 329 326 322 323 326 326 325 323 320 319 319 316 315 314 312 310 308 304 302 302 300 298 297 297 297 297 298
290 284 277 287 302 318 328 333 299 304 260 261 257 266 259 264 257 233 251 272 301 314 323 334 337 336 337 340 339 337 337 337 334 331 326 323 320 319 316 312 309 305 302 300 301 302 301 300 299 299 300 300 300 300
Wind_Speed_850mb
30 27 15 15 10 17 17 17 22 19 33 45 37 47 47 45 42 43 47 45 40 15 9 14 18 22 21 19 11 8 19 11 29 24 15 7 7 9 9 20 38 22 23 11 7 3 32 27 61 58 42 22 13 62
41 25 18 12 11 13 14 11 16 14 27 38 43 41 37 36 36 35 25 35 39 10 7 23 34 40 49 34 25 18 4 12 11 9 6 7 7 6 11 21 7 11 24 25 32 24 1 81 44 54 48 30 22 42
49 36 19 9 8 11 12 9 12 10 11 36 42 39 34 30 30 30 24 29 30 10 9 12 19 25 24 29 32 9 8 14 15 10 9 6 10 8 9 8 27 4 7 12 12 12 11 54 27 72 27 41 24 16
59 42 25 4 3 5 8 8 10 10 6 45 42 37 33 33 25 16 24 27 25 5 5 15 22 31 31 20 14 22 23 20 32 17 6 6 8 4 4 9 16 6 20 14 3 3 9 32 58 79 23 25 30 24
60 28 19 7 5 7 8 9 9 11 9 36 36 36 34 34 27 21 19 13 12 15 6 9 17 37 35 39 12 25 22 15 8 7 6 4 4 8 1 7 5 9 5 26 12 20 8 29 76 66 57 38 38 48
51 40 26 17 11 9 9 8 8 12 8 25 30 27 28 26 21 9 5 10 10 10 7 3 10 26 49 38 42 32 29 23 10 10 4 6 6 3 7 6 11 20 22 10 3 15 16 45 59 49 60 49 51 48
64 43 33 28 19 14 9 5 9 13 10 12 21 18 17 20 10 1 5 7 13 1 6 5 6 17 51 35 31 31 38 20 18 10 6 4 4 6 6 7 17 29 21 25 17 15 9 10 6 25 40 52 51 45
77 75 55 37 24 12 5 3 15 18 19 15 18 18 16 19 28 21 21 27 16 1 4 4 7 9 46 20 12 32 23 20 28 7 6 5 2 7 9 14 24 32 12 25 30 19 11 6 5 15 36 45 46 44
74 70 63 61 44 22 7 1 22 22 28 22 20 19 10 5 9 13 17 20 25 20 6 6 7 7 33 24 20 23 19 8 14 8 5 7 8 12 11 20 29 34 24 33 17 18 15 19 16 14 14 32 40 47
69 68 67 61 55 31 14 11 22 30 32 26 14 7 9 9 14 17 9 10 18 21 18 5 21 4 17 15 7 9 12 6 6 6 14 8 7 23 25 24 25 25 25 29 17 19 25 20 19 13 6 9 22 35
63 66 63 65 57 44 26 29 46 44 38 9 7 9 10 15 12 12 13 11 14 10 23 18 14 6 22 6 6 15 4 6 6 7 6 5 6 7 26 25 30 26 22 22 16 10 11 14 14 11 8 8 9 19
60 58 62 63 58 53 29 28 38 29 11 13 22 18 15 18 14 14 6 7 11 3 20 9 15 17 16 12 5 10 4 5 7 10 5 5 5 19 30 33 32 32 27 21 13 8 7 5 4 4 5 6 11 19
58 54 55 61 62 48 49 40 42 33 23 16 9 11 18 18 21 12 12 8 7 14 24 23 9 18 17 21 4 6 9 3 4 7 5 5 13 28 36 35 28 29 23 18 16 14 12 11 9 6 5 6 10 18
50 53 56 55 56 52 34 35 28 21 9 16 16 15 9 10 6 3 4 5 10 17 36 29 13 6 10 8 5 8 4 4 7 6 5 4 21 30 30 30 30 32 29 25 22 20 20 20 18 18 18 20 21 26
43 51 53 58 56 52 34 22 15 12 14 16 15 9 7 4 3 11 15 16 16 32 27 12 13 6 6 7 6 3 10 8 6 5 5 16 25 24 23 24 23 22 23 23 22 22 22 21 19 22 25 28 30 34
48 45 45 44 47 49 27 15 22 22 16 14 20 8 11 4 10 17 18 15 33 38 16 4 4 8 8 3 10 6 4 4 5 4 18 25 21 20 19 18 19 19 20 21 21 20 21 20 20 21 22 25 28 31
36 42 45 36 35 41 17 19 21 21 16 12 9 19 11 4 5 12 21 27 38 21 5 4 10 2 5 7 7 6 2 4 17 23 22 22 19 18 16 15 15 16 16 16 16 15 15 14 14 15 16 20 21 22
51 51 46 32 28 26 58 29 17 17 17 17 8 11 10 12 15 11 25 29 22 12 11 2 3 12 5 5 5 4 6 15 14 13 13 14 16 17 16 16 16 16 15 14 12 11 11 9 7 8 8 11 13 14
46 46 45 28 35 21 15 20 18 13 14 8 9 12 6 7 15 23 29 17 15 16 6 6 10 5 3 2 4 11 15 17 17 19 12 12 15 20 19 17 17 16 14 13 12 11 8 5 3 2 2 4 3 4
36 37 42 40 25 15 14 17 14 14 9 7 8 7 5 6 16 17 30 19 17 8 14 8 1 4 5 8 11 16 17 18 18 15 11 12 14 18 17 16 18 20 17 15 14 12 10 7 5 4 4 3 5 7
32 36 44 51 49 32 18 12 15 12 7 5 11 11 7 10 10 22 25 24 15 13 4 9 10 10 12 12 12 12 13 13 14 13 17 16 19 18 17 18 20 18 17 15 12 10 8 9 9 9 9 10 10 12
25 31 32 30 21 16 20 24 9 7 6 6 8 12 10 8 15 20 24 20 11 9 9 12 15 15 13 12 11 12 13 14 15 16 18 20 23 22 21 22 21 20 20 20 17 16 15 14 15 15 15 17 17 16
19 19 19 24 12 16 8 18 7 15 7 15 8 8 8 10 17 19 10 9 7 13 13 13 13 12 11 11 12 12 14 15 15 17 19 20 22 23 22 23 26 26 24 21 25 23 24 25 26 25 23 23 24 24
21 15 17 15 24 7 12 15 11 13 9 10 8 9 10 15 27 11 3 7 11 13 13 13 13 12 13 12 14 17 18 19 19 19 23 24 24 20 24 23 23 26 31 32 29 29 30 30 34 34 34 34 33 35
11 25 16 14 20 14 14 13 13 11 6 6 8 7 9 16 6 6 1 6 14 14 14 14 14 16 18 17 20 22 25 28 30 29 27 30 32 31 27 26 27 31 32 28 27 29 27 30 32 33 33 35 36 38
14 20 12 6 9 8 2 7 6 4 2 9 3 11 9 5 7 3 6 7 10 13 13 12 12 11 11 16 19 20 23 24 28 29 28 31 33 36 36 38 40 36 35 34 33 33 32 32 34 35 36 35 37 41
10 6 9 12 6 6 7 4 3 3 4 1 5 9 6 6 5 7 3 3 13 20 18 17 16 16 17 17 18 19 22 23 24 25 26 27 25 27 33 37 39 35 37 38 40 42 44 44 44 44 47 46 46 46
8 7 3 4 2 4 7 2 1 3 5 2 3 3 6 12 8 3 7 19 28 32 20 16 17 20 24 27 30 33 35 38 39 39 39 36 28 35 38 43 46 44 45 46 49 52 55 57 59 59 60 62 61 56
4 7 4 3 1 3 4 6 5 2 1 2 3 6 8 9 14 26 27 23 17 15 11 15 22 29 35 41 44 48 51 53 57 58 57 58 55 49 57 62 60 59 61 65 63 65 66 66 66 66 66 67 68 66
5 11 2 2 4 4 5 6 5 9 13 15 14 16 20 20 8 7 8 6 5 8 13 18 23 29 45 56 54 51 48 49 48 48 51 55 58 61 64 66 67 65 63 63 63 62 60 60 61 62 65 68 70 70
6 6 3 4 4 3 5 13 25 26 17 14 22 29 25 20 10 9 3 4 6 5 8 18 32 51 48 48 51 59 64 57 54 50 51 56 59 60 58 56 55 53 51 51 51 50 49 49 49 51 53 53 52 51
5 3 5 3 3 6 13 6 8 5 6 6 8 9 10 11 11 7 6 4 7 14 24 39 51 45 45 53 48 45 44 46 47 48 50 53 55 55 55 56 57 58 55 53 53 54 55 54 54 54 55 55 53 52
6 5 5 6 4 3 6 13 3 6 8 7 7 7 8 9 13 7 10 12 17 27 37 48 46 50 51 40 38 35 41 44 47 49 51 53 54 55 55 54 54 54 56 60 62 59 55 51 50 49 48 49 49 48
Wind_Direction_850mb
19 27 65 60 14 42 16 9 13 56 146 149 159 165 173 184 194 194 210 222 225 199 235 227 237 237 260 233 271 159 160 174 191 199 166 158 136 208 106 133 158 155 152 163 115 191 255 163 151 171 193 143 192 194
25 24 16 15 26 42 25 36 15 13 65 156 153 155 158 166 176 189 211 214 208 207 265 259 271 280 270 276 280 259 249 138 164 166 109 109 126 156 158 153 178 147 182 172 190 194 340 173 169 190 193 195 172 197
10 7 354 338 3 30 42 36 36 14 56 91 139 137 144 158 176 193 209 191 192 199 255 273 279 333 311 294 293 263 256 175 145 129 136 147 136 149 161 204 158 334 151 157 108 205 197 182 200 197 199 184 175 184
359 355 2 321 11 29 67 55 69 17 52 77 134 131 132 133 135 157 169 178 193 205 243 244 343 353 346 333 3 227 225 131 129 124 103 128 127 192 189 151 175 185 150 149 252 112 102 193 194 197 188 183 181 167
3 359 23 114 71 48 70 60 80 61 86 87 106 125 125 129 120 119 112 104 211 219 236 278 297 1 360 16 353 26 115 118 107 92 58 98 90 108 353 80 70 353 202 193 226 156 136 188 196 199 196 168 174 164
41 48 42 56 42 56 79 74 96 95 140 82 100 118 128 139 150 156 155 55 6 235 249 291 309 346 355 4 13 45 43 44 65 86 85 77 84 93 101 87 24 8 8 356 85 143 166 189 196 197 202 191 175 182
49 51 51 50 52 62 66 85 114 113 113 78 112 99 112 128 154 176 118 347 3 238 236 341 335 348 353 358 357 6 30 28 48 78 52 88 42 57 53 82 357 348 351 33 75 149 131 111 173 198 203 193 190 179
29 32 50 51 59 66 91 168 147 138 143 108 108 89 90 98 108 87 58 35 28 28 47 62 312 6 6 343 335 359 1 22 28 66 63 35 46 71 77 22 4 357 338 19 50 70 131 112 97 189 197 203 196 196
26 28 33 37 42 39 8 264 156 148 152 142 121 104 78 353 61 36 28 22 32 41 96 62 4 320 347 5 350 347 5 41 10 34 29 355 13 50 13 353 4 2 359 332 26 54 90 89 74 79 165 194 204 199
26 26 27 31 36 41 66 105 147 152 145 129 109 51 42 20 10 5 24 21 18 20 43 55 344 328 343 347 348 348 8 24 37 11 321 60 78 88 25 7 360 350 358 8 29 24 24 41 36 31 25 192 208 213
26 26 28 20 31 51 68 133 140 144 144 133 54 52 77 30 20 24 38 49 345 21 9 337 2 318 14 9 343 10 347 351 40 340 0 67 79 57 3 4 5 6 17 26 37 30 12 7 360 350 325 296 242 215
26 28 28 31 25 44 104 132 144 140 131 101 108 83 28 21 32 64 355 4 41 4 336 331 317 325 321 349 32 349 28 3 33 323 21 62 56 9 8 6 9 18 26 31 39 40 50 42 32 344 314 269 231 211
22 26 29 31 33 34 44 109 108 111 102 69 60 58 11 345 43 50 348 340 25 343 359 340 323 340 330 1 41 14 42 29 316 23 53 36 360 356 5 7 16 22 32 43 53 66 82 88 98 100 118 159 180 187
27 26 29 28 29 32 40 46 85 110 79 51 39 31 54 355 37 187 234 258 311 314 324 316 282 328 340 16 348 43 311 355 40 41 36 22 351 344 357 4 10 16 25 35 49 64 81 94 108 123 133 139 148 157
18 23 18 19 21 20 31 43 72 141 53 60 38 49 55 284 317 338 325 304 325 325 335 327 274 296 331 48 33 8 15 22 26 18 350 341 338 344 357 6 12 15 23 32 46 61 75 89 110 125 133 141 148 149
9 10 13 12 7 7 17 32 82 75 64 61 51 71 1 47 352 360 337 325 345 342 334 290 311 37 13 51 39 42 44 8 324 315 325 330 335 340 350 2 10 16 22 26 40 58 71 85 96 107 121 135 144 151
10 15 15 15 18 11 16 52 47 53 53 52 46 37 49 27 290 325 329 333 343 348 23 0 41 224 310 33 37 7 107 262 308 322 330 340 344 345 352 4 11 16 26 30 31 43 61 78 93 107 120 129 137 144
17 14 13 20 25 49 51 46 67 62 65 51 67 20 46 41 355 351 353 354 2 15 358 117 310 35 61 30 356 305 325 315 305 331 346 350 350 354 2 12 19 22 26 31 33 42 52 63 76 92 116 129 135 144
11 13 17 37 47 53 50 42 48 88 64 59 41 18 357 351 359 4 1 3 18 36 36 36 60 38 334 335 279 322 329 335 322 324 343 359 10 7 6 10 12 18 25 29 25 27 32 43 53 65 109 130 142 153
24 30 40 51 61 60 67 43 47 77 76 36 14 11 11 5 352 353 14 21 40 49 42 44 183 289 289 327 324 325 333 341 347 357 10 21 19 15 20 16 14 14 15 19 21 13 1 342 313 292 294 266 244 240
36 45 51 61 55 57 66 45 56 62 70 69 19 8 346 346 4 12 11 18 50 37 26 17 355 346 335 330 329 327 329 333 337 350 345 348 356 8 15 11 1 357 358 354 350 348 341 323 314 303 289 273 262 261
40 45 48 39 51 62 59 31 53 36 31 31 14 10 38 20 3 2 356 39 59 34 16 356 352 349 346 346 341 343 345 349 350 353 355 357 358 359 359 353 351 347 342 336 332 328 319 310 304 298 291 286 283 274
43 41 40 29 62 44 37 15 42 19 55 342 7 33 12 0 357 356 67 53 59 19 22 23 23 24 28 32 29 23 16 8 0 356 351 349 349 342 343 344 334 332 327 323 314 316 311 308 303 298 293 290 287 284
49 45 30 38 26 20 356 25 26 17 33 26 23 3 352 330 343 43 52 7 1 2 9 11 16 22 22 20 16 8 5 360 357 351 341 341 342 341 332 330 321 314 308 306 303 297 294 293 292 292 292 289 290 289
65 12 23 5 19 24 25 3 353 28 23 338 12 352 342 341 31 44 208 321 358 1 4 5 5 3 2 7 1 357 355 351 350 352 346 343 338 335 332 324 320 317 310 309 304 300 297 290 289 290 289 288 286 283
67 14 41 3 355 46 351 16 13 348 16 352 308 321 336 46 45 270 242 344 353 356 354 353 352 353 354 355 356 355 347 345 346 348 348 342 338 333 334 335 332 331 321 319 315 311 308 303 298 294 291 289 286 286
62 348 28 34 48 65 59 61 52 80 32 358 291 357 37 38 271 261 208 9 9 355 341 338 338 339 339 339 331 322 321 322 320 321 327 328 326 325 322 322 322 322 313 311 309 308 306 303 300 296 293 289 288 289
98 54 126 343 113 99 135 82 185 230 244 197 339 346 166 190 236 249 293 307 313 324 316 298 301 300 303 308 308 308 306 307 304 302 301 305 312 317 318 315 312 309 302 298 295 293 294 295 294 292 290 288 287 285
73 22 72 61 145 207 198 183 238 270 222 299 174 266 257 250 289 308 313 317 323 323 311 287 285 300 312 317 315 310 310 310 309 308 305 302 302 297 300 304 303 300 298 295 292 291 291 289 288 286 285 285 286 286
350 350 80 132 143 232 180 207 247 257 267 266 273 279 281 282 283 299 320 323 329 328 327 331 334 333 331 323 322 321 321 323 324 322 317 311 308 306 305 305 304 303 300 297 296 294 290 288 286 284 285 288 290 290
321 327 299 253 247 220 243 289 292 290 281 264 251 251 266 296 280 227 261 318 329 349 357 342 331 334 329 327 327 324 321 324 322 319 314 310 310 310 310 309 308 307 305 304 304 304 303 302 300 299 297 297 296 296
297 273 313 298 285 298 312 324 304 281 274 263 256 255 274 279 272 197 225 257 274 306 323 333 338 339 336 329 326 322 323 326 326 325 323 320 319 319 316 315 314 312 310 308 304 302 302 300 298 297 297 297 297 298
290 284 277 287 302 318 328 333 299 304 260 261 257 266 259 264 257 233 251 272 301 314 323 334 337 336 337 340 339 337 337 337 334 331 326 323 320 319 316 312 309 305 302 300 301 302 301 300 299 299 300 300 300 300